Location: Benalto
(52.3088°N, 114.2787°W)
Time: 12:15:34
(UTC+00:00)

N. Korean satellite - Pass Details

Date: 01 December 2021
Orbit: 447 x 491 km, 97.3° (Epoch: 21 January)

Event Time Altitude Azimuth Distance (km) Brightness Sun altitude
Rises 14:04:07 0° 2° (N) 2,486 10.0 -11.6°
Reaches altitude 10° 14:06:30 10° 346° (NNW) 1,600 8.9 -11.3°
Maximum altitude 14:09:07 21° 296° (WNW) 1,083 7.7 -10.9°
Drops below altitude 10° 14:11:42 10° 246° (WSW) 1,580 8.8 -10.6°
Sets 14:14:02 0° 230° (SW) 2,444 9.9 -10.2°
